www.pogodaiklimat.ru

Погода и климат >> Архив погоды >> Узбекистан >> Нукус


ПОГОДА в Нукусе

  • Прогноз погоды в Нукусе
  • Монитор погоды в Нукусе
  • Климат города

АРХИВ ПОГОДЫ в Нукусе

Время (UTC), дата Ветер
(напр.,м/с)
 
Видим.   Явления Облачность Т
(С)
Тd
(С)
f
(%)
Тe
(С)
Тes
(С)
Комфортность P
(гПа)
Po
(гПа)
Тmin
(С)
Tmax
(С)
R
(мм)
R24
(мм)
S
(см)
00 14.02 С 3 20 км 1/0
[Ci fib]
-13.2 -15.2 85 -19 -19 1022.1 1012.1
03 14.02 С 4 20 км 4/0
[Ci fib]
-13.8 -15.8 85 -21 -21 1023.0 1013.0
06 14.02 С 6 20 км 9/0
[Ac trans]
-10.6 -14.2 75 -19 -18 1023.7 1013.7 -14.1
09 14.02 С 6 20 км 9/0
[Ac trans]
-5.3 -13.3 53 -13 -11 1023.2 1013.4
12 14.02 С 6 20 км 9/0
[Ac As]
-4.0 -13.4 48 -11 -11 1024.0 1014.3
15 14.02 С 6 20 км 6/0
[Ac trans Ci fib]
-7.0 -13.3 61 -15 -15 1027.1 1017.2 -3.6
18 14.02 С 6 20 км ясно -10.5 -14.9 70 -19 -19 1030.4 1020.3 -3.6
21 14.02 С 4 20 км ясно -12.8 -15.5 80 -20 -20 1031.5 1021.4
00 15.02 С 2 20 км ясно -14.7 -16.7 85 -20 -20 1033.3 1023.0
03 15.02 С 3 20 км 3/0
[Ci ing]
-15.1 -17.8 80 -22 -22 1035.6 1025.2
06 15.02 20 км 5/0
[Ci ing]
-11.5 -16.8 65 1037.7 1027.5 -15.4
09 15.02 СВ 2 20 км 5/0
[Ci fib]
-5.5 -15.5 45 -9 -3 1037.4 1027.4
12 15.02 СВ 4 20 км 8/0
[Ci]
-3.3 -15.8 37 -9 -8 1036.6 1026.8
15 15.02 СВ 4 20 км 8/0
[Ci ing]
-5.7 -15.9 44 -12 -12 1037.9 1027.9 -2.8
18 15.02 СВ 3 20 км 6/0
[Ac trans]
-8.3 -15.9 54 -14 -14 1038.4 1028.4 -2.8
21 15.02 С 4 20 км 6/0
[Ac trans]
-9.3 -15.5 61 -16 -16 1038.7 1028.7
00 16.02 СВ 3 20 км 9/0
[Ac trans]
-9.8 -15.1 65 -16 -16 1038.5 1028.3
03 16.02 С 2 20 км 3/0
[Ac trans]
-12.6 -16.1 75 -17 -17 1039.6 1029.4
06 16.02 СВ 3 20 км ясно -6.9 -14.8 53 -12 -8 1040.3 1030.3 -12.9
09 16.02 С 3 20 км ясно -1.2 -15.2 34 -5 +1 1039.0 1029.2
12 16.02 СВ 5 20 км ясно +0.9 -15.7 28 -4 -3 1038.3 1028.6
15 16.02 СВ 3 20 км ясно -3.7 -14.6 43 -8 -8 1038.8 1029.0 +1.2
18 16.02 С 3 20 км ясно -6.9 -11.6 69 -12 -12 1039.2 1029.2 +1.2
21 16.02 С 3 20 км ясно -9.3 -11.8 82 -15 -15 1038.7 1028.7
00 17.02 СВ 3 20 км ясно -10.7 -12.7 85 -17 -17 1038.2 1028.0
03 17.02 СВ 3 20 км 3/0
[Ci ing]
-11.5 -13.5 85 -17 -17 1037.4 1027.2
06 17.02 СВ 4 20 км 3/0
[Ci ing]
-4.9 -12.2 57 -11 -7 1037.6 1027.6 -12.0
09 17.02 СВ 6 20 км 4/0
[Ci ing]
+1.7 -13.8 31 -3 -1 1035.1 1025.4
12 17.02 СВ 7 20 км 5/0
[Ci ing]
+2.9 -16.1 23 -2 -2 1033.0 1023.4
15 17.02 СВ 6 20 км 5/0
[Ci ing]
-1.4 -13.7 39 -7 -7 1033.1 1023.4 +3.4
18 17.02 СВ 5 20 км ясно -6.0 -12.3 61 -13 -13 1033.3 1023.4 +3.4
21 17.02 СВ 4 20 км ясно -8.2 -12.4 72 -15 -15 1032.5 1022.6
00 18.02 С 4 20 км ясно -9.7 -13.8 72 -17 -17 1032.0 1021.9
03 18.02 СВ 3 20 км ясно -11.3 -14.8 75 -17 -17 1031.5 1021.4
06 18.02 СВ 6 20 км ясно -5.3 -12.8 56 -13 -10 1031.4 1021.5 -11.6
09 18.02 СВ 7 20 км 3/0
[Ci fib]
+2.0 -15.3 26 -3 -1 1028.3 1018.7
12 18.02 СВ 8 20 км 3/0
[Ci fib]
+3.7 -14.8 24 -1 -1 1025.6 1016.8
15 18.02 СВ 7 20 км 3/0
[Ci fib]
-2.2 -11.9 47 -9 -9 1025.1 1015.4 +4.1
18 18.02 СВ 8 20 км ясно -3.8 -11.0 57 -12 -12 1024.2 1014.5 +4.1
21 18.02 СВ 4 20 км 3/0
[Ci ing]
-4.4 -12.4 54 -10 -10 1021.9 1012.3
00 19.02 СВ 6 20 км 6/0
[Ac trans]
-5.0 -10.8 64 -12 -12 1020.8 1011.0
03 19.02 СВ 6 20 км 8/0
[Ac trans]
-4.8 -10.1 66 -12 -12 1020.1 1010.3
06 19.02 СВ 6 20 км 9/0
[Ac As]
-1.5 -11.1 48 -8 -7 1020.2 1010.6 -5.3
09 19.02 СВ 7 20 км 9/0
[Ac As]
+3.1 -13.4 29 -2 -1 1017.8 1008.3
12 19.02 СВ 4 20 км в посл. час ливневой дождь 9/0
[Ac As]
+4.7 -13.0 26 +2 +2 1016.8 1007.3
15 19.02 СВ 2 20 км 9/0
[Ac As]
+2.7 -11.1 35 +1 +1 1018.1 1008.6 +5.0
18 19.02 С 3 20 км в посл. час ливневой дождь 10/3 1500 м
[Cb cap Ac As]
-0.1 -3.4 78 -5 -5 1017.3 1007.7 +5.0 0.0
21 19.02 С 2 20 км {ливн. осадки} 9/0
[Ac As]
-0.4 -2.5 86 -4 -4 1015.9 1006.3
00 20.02 СЗ 2 20 км 9/0
[Ac As]
-0.9 -2.8 87 -5 -5 1015.8 1006.2
03 20.02 ЮЗ 2 20 км 9/9 1000 м
[Sc]
-0.8 -3.0 85 -5 -5 1016.2 1006.6
06 20.02 ЮЗ 2 20 км 9/9 600 м
[Sc]
+1.0 -3.2 74 -2 -2 1016.9 1007.4 -1.2 1
09 20.02 ЮЗ 4 20 км 9/9 840 м
[Sc]
+3.3 -0.8 74 -1 -1 1016.6 1007.1
12 20.02 ЮЗ 4 20 км 9/9 720 м
[Sc]
+3.8 -0.8 72 -0 -0 1016.9 1007.4
15 20.02 ЮЗ 2 20 км 9/9 1000 м
[Sc]
+2.8 -1.1 75 -0 -0 1017.6 1008.1 +4.5
18 20.02 Ю 3 20 км 9/9 800 м
[Sc]
+2.5 -1.1 77 -1 -1 1018.1 1008.6 +4.5
21 20.02 З 3 20 км 9/9 450 м
[Sc]
+0.7 -0.7 90 -4 -4 1018.6 1009.1

 

Местоположение метеостанции Нукус (Каракалпакстан, Узбекистан): широта 42.45 долгота 59.62 высота над уровнем моря 77 м.

В архиве по умолчанию представлена погода в Нукусе за последнюю неделю. Архивные данные за месяц целиком и за предыдущие месяцы, начиная с января 2011 года, Вы можете получить, выбрав интересующий диапазон дат из раскрывающегося списка и нажав кнопку "Ввод!".

Внимание! Время в таблицах - всемирное. Для получения местного времени необходимо прибавить поправку, которая в Нукусе равна 5 ч.

Смотрите также архив погоды в соседних городах и на ближайших метеорологических станциях:

Погода в Тахтакупыре (Каракалпакстан, Узбекистан) (3 км)
Погода в Кенеургенче (Дашогузский велаят, Туркменистан) (44 км)
Погода в Чимбае (Каракалпакстан, Узбекистан) (58 км)
Погода в Дашогузе (Дашогузский велаят, Туркменистан) (80 км)
Погода в Кунграде (Каракалпакстан, Узбекистан) (90 км)
Погода в Гурлене (Хорезмская область, Узбекистан) (92 км)
Погода в Шах-Сенеме (Дашогузский велаят, Туркменистан) (122 км)
Погода в Ургенче (Хорезмская область, Узбекистан) (125 км)
Погода в Хиве (Хорезмская область, Узбекистан) (133 км)
Погода в Муйнаке (Каракалпакстан, Узбекистан) (162 км)

Пояснения к столбцам:

Ветер - указаны скорость ветра в м/с - средняя за 10 мин, порывы в срок и между сроками (в фигурных скобках) и направление, откуда дует ветер: С - северный, СВ - северо-восточный, В - восточный, ЮВ - юго-восточный, Ю - южный, ЮЗ - юго-западный, З - западный, СЗ - северо-западный.
Видимость - горизонтальная дальность видимости в метрах или километрах. При видимости от 1 до 10 км при отсутствии осадков обычно наблюдается дымка, при ухудшении видимости до 1 км и менее - туман. В сухую погоду видимость может ухудшаться дымом, пылью или мглою.
Явления - указаны атмосферные явления, наблюдавшиеся в срок или в последний час перед сроком; фигурными скобками обозначены явления, наблюдавшиеся между сроками (за 1-3 часа до срока); квадратными скобками обозначены град или гололедные отложения с указанием их диаметра в мм.
Облачность - указаны через наклонную черту общая и нижняя облачность в баллах и высота нижней границы облаков в метрах; квадратными скобками обозначены формы облаков: Ci - перистые, Cs - перисто-слоистые, Cc - перисто-кучевые, Ac - высококучевые, As - высокослоистые, Sc - слоисто-кучевые, Ns - слоисто-дождевые, Cu - кучевые, Cb - кучево-дождевые. Подробнее классификацию облаков см. в Атласе облаков (PDF).
T - Температура воздуха - температура, измеренная на высоте 2 м над землей.
Td - Температура точки росы - температура, при понижении до которой содержащийся в воздухе водяной пар достигнет насыщения.
f - Относительная влажность воздуха - влажноcть воздуха, измеренная на высоте 2 м над землей.
Te - Эффективная температура - температура, которую ощущает одетый по сезону человек в тени. Характеристика душности погоды. При расчете учитывается влияние влажности воздуха и скорости ветра на теплоощущения человека.
Tes - Эффективная температура на солнце - температура, которую ощущает человек, с поправкой на солнечный нагрев. Характеристика знойности погоды. Зависит от высоты солнца над горизонтом, облачности и скорости ветра. Ночью, в пасмурную погоду, а также при ветре 12 м/с и более поправка равна нулю.
P - Атмосферное давление - приведенное к уровню моря атмосферное давление.
Po - Атмосферное давление - измеренное на уровне метеостанции атмосферное давление.
Tmin - Минимальная температура - минимум температуры воздуха на высоте 2 м над землей.
Tmax - Максимальная температура - максимум температуры воздуха на высоте 2 м над землей.
R - Количество осадков - Количество выпавших осадков за период времени, мм. При наведении курсора мыши на число - период времени, за который выпало указанное количество осадков.
R24 - Количество осадков - Количество выпавших осадков за 24 часа, мм.
S - Снежный покров - Высота снежного покрова, см. При наведении курсора мыши на число - состояние снежного покрова и степень покрытия местности в баллах.